Location: Austin
(30.3000°N, 97.7500°W)
Time: 00:46:24
(UTC-05:00)

SL-8 Rocket - Pass Details

Date: 28 July 2024
Orbit: 957 x 989 km, 82.9° (Epoch: 16 July)

Event Time Altitude Azimuth Distance (km) Brightness Sun altitude
Rises 22:58:01 0° 224° (SW) 3,672 7.0 -27.8°
Reaches altitude 10° 23:01:20 10° 242° (WSW) 2,733 6.5 -28.3°
Maximum altitude 23:05:36 19° 285° (WNW) 2,160 6.4 -28.9°
Drops below altitude 10° 23:09:55 10° 329° (NNW) 2,750 7.3 -29.5°
Sets 23:13:18 0° 346° (NNW) 3,704 7.9 -30.0°
